Time,TemperatureF,DewpointF,PressureIn,WindDirection,WindDirectionDegrees,WindSpeedMPH,WindSpeedGustMPH,Humidity,HourlyPrecipIn,Conditions,Clouds,dailyrainin,SoftwareType,DateUTC
2013-10-07 00:03:00,58.3,44.5,30.10,North,349,0.0,0.0,60,0.00,RA,,0.00,WeatherDisplay:10.37,2013-10-07 05:03:00,
2013-10-07 00:08:00,58.3,44.9,30.10,North,349,0.0,0.0,61,0.00,RA,,0.00,WeatherDisplay:10.37,2013-10-07 05:08:00,
2013-10-07 00:13:00,58.2,43.5,30.10,North,349,0.0,0.0,58,0.00,CLR,,0.00,WeatherDisplay:10.37,2013-10-07 05:13:00,
2013-10-07 00:18:00,58.2,45.2,30.09,North,349,0.0,0.0,62,0.00,CLR,,0.00,WeatherDisplay:10.37,2013-10-07 05:18:00,
2013-10-07 00:23:00,58.1,45.6,30.09,North,349,0.0,0.0,63,0.00,CLR,,0.00,WeatherDisplay:10.37,2013-10-07 05:23:00,
2013-10-07 00:28:00,58.0,44.6,30.09,North,349,0.0,0.0,61,0.00,CLR,,0.00,WeatherDisplay:10.37,2013-10-07 05:28:00,
2013-10-07 00:33:00,57.9,45.8,30.09,North,349,0.0,0.0,64,0.00,CLR,,0.00,WeatherDisplay:10.37,2013-10-07 05:33:00,
2013-10-07 00:38:00,57.7,45.2,30.09,North,349,0.0,0.0,63,0.00,CLR,,0.00,WeatherDisplay:10.37,2013-10-07 05:38:00,
2013-10-07 00:43:00,57.5,45.8,30.09,North,349,0.0,0.0,65,0.00,CLR,,0.00,WeatherDisplay:10.37,2013-10-07 05:43:00,
2013-10-07 00:48:00,57.3,45.6,30.09,North,349,0.0,0.0,65,0.00,CLR,,0.00,WeatherDisplay:10.37,2013-10-07 05:48:00,
2013-10-07 00:53:00,57.1,45.4,30.09,North,349,0.0,0.0,65,0.00,CLR,,0.00,WeatherDisplay:10.37,2013-10-07 05:53:00,
2013-10-07 00:58:00,56.9,44.8,30.09,North,349,1.2,1.2,64,0.00,CLR,,0.00,WeatherDisplay:10.37,2013-10-07 05:58:00,
2013-10-07 01:03:00,56.7,45.1,30.09,North,349,1.2,1.2,65,0.00,CLR,,0.00,WeatherDisplay:10.37,2013-10-07 06:03:00,
2013-10-07 01:08:00,56.6,45.4,30.09,North,349,0.0,0.0,66,0.00,CLR,,0.00,WeatherDisplay:10.37,2013-10-07 06:08:00,
2013-10-07 01:13:00,56.3,44.7,30.10,North,349,0.0,0.0,65,0.00,CLR,,0.00,WeatherDisplay:10.37,2013-10-07 06:13:00,
2013-10-07 01:18:00,56.2,45.4,30.09,North,349,0.0,0.0,67,0.00,CLR,,0.00,WeatherDisplay:10.37,2013-10-07 06:18:00,
2013-10-07 01:23:00,56.0,45.6,30.09,North,349,0.0,0.0,68,0.00,CLR,,0.00,WeatherDisplay:10.37,2013-10-07 06:23:00,
2013-10-07 01:28:00,55.8,45.0,30.09,North,349,0.0,0.0,67,0.00,CLR,,0.00,WeatherDisplay:10.37,2013-10-07 06:28:00,
2013-10-07 01:33:00,55.7,45.3,30.09,North,349,0.0,0.0,68,0.00,CLR,,0.00,WeatherDisplay:10.37,2013-10-07 06:33:00,
2013-10-07 01:38:00,55.5,45.9,30.09,North,349,0.0,0.0,70,0.00,CLR,,0.00,WeatherDisplay:10.37,2013-10-07 06:38:00,
2013-10-07 01:43:00,55.4,45.8,30.09,North,349,0.0,0.0,70,0.00,CLR,,0.00,WeatherDisplay:10.37,2013-10-07 06:43:00,
2013-10-07 01:48:00,55.3,44.9,30.09,North,349,0.0,0.0,68,0.00,CLR,,0.00,WeatherDisplay:10.37,2013-10-07 06:48:00,
2013-10-07 01:53:00,55.1,44.3,30.09,North,349,0.0,0.0,67,0.00,CLR,,0.00,WeatherDisplay:10.37,2013-10-07 06:53:00,
2013-10-07 01:58:00,55.0,45.4,30.09,North,349,0.0,0.0,70,0.00,CLR,,0.00,WeatherDisplay:10.37,2013-10-07 06:58:00,
2013-10-07 02:03:00,54.9,45.3,30.09,NNW,331,0.0,0.0,70,0.00,CLR,,0.00,WeatherDisplay:10.37,2013-10-07 07:03:00,
2013-10-07 02:08:00,54.9,45.3,30.09,NNW,331,0.0,0.0,70,0.00,CLR,,0.00,WeatherDisplay:10.37,2013-10-07 07:08:00,
2013-10-07 02:13:00,54.9,44.9,30.09,NNW,331,1.2,1.2,69,0.00,CLR,,0.00,WeatherDisplay:10.37,2013-10-07 07:13:00,
2013-10-07 02:18:00,54.9,45.3,30.09,NW,325,1.2,1.2,70,0.00,CLR,,0.00,WeatherDisplay:10.37,2013-10-07 07:18:00,
2013-10-07 02:23:00,54.9,45.7,30.09,NW,325,0.0,0.0,71,0.00,CLR,,0.00,WeatherDisplay:10.37,2013-10-07 07:23:00,
2013-10-07 02:28:00,54.9,45.7,30.09,NW,325,0.0,0.0,71,0.00,CLR,,0.00,WeatherDisplay:10.37,2013-10-07 07:28:00,
2013-10-07 02:33:00,54.8,45.2,30.09,NW,325,0.0,0.0,70,0.00,CLR,,0.00,WeatherDisplay:10.37,2013-10-07 07:33:00,
2013-10-07 02:38:00,54.8,44.8,30.09,NW,325,0.0,0.0,69,0.00,CLR,,0.00,WeatherDisplay:10.37,2013-10-07 07:38:00,
2013-10-07 02:43:00,54.7,44.7,30.09,NW,325,0.0,0.0,69,0.00,CLR,,0.00,WeatherDisplay:10.37,2013-10-07 07:43:00,
2013-10-07 02:48:00,54.7,45.1,30.09,NW,325,0.0,0.0,70,0.00,CLR,,0.00,WeatherDisplay:10.37,2013-10-07 07:48:00,
2013-10-07 02:53:00,54.7,45.1,30.09,NW,325,0.0,0.0,70,0.00,CLR,,0.00,WeatherDisplay:10.37,2013-10-07 07:53:00,
2013-10-07 02:58:00,54.7,45.1,30.09,NW,325,0.0,0.0,70,0.00,CLR,,0.00,WeatherDisplay:10.37,2013-10-07 07:58:00,
2013-10-07 03:03:00,54.6,44.6,30.08,NW,325,0.0,0.0,69,0.00,CLR,,0.00,WeatherDisplay:10.37,2013-10-07 08:03:00,
2013-10-07 03:08:00,54.6,45.8,30.09,NW,325,0.0,0.0,72,0.00,CLR,,0.00,WeatherDisplay:10.37,2013-10-07 08:08:00,
2013-10-07 03:13:00,54.6,45.8,30.09,NW,325,0.0,0.0,72,0.00,CLR,,0.00,WeatherDisplay:10.37,2013-10-07 08:13:00,
2013-10-07 03:18:00,54.6,45.4,30.09,NW,325,0.0,0.0,71,0.00,CLR,,0.00,WeatherDisplay:10.37,2013-10-07 08:18:00,
2013-10-07 03:23:00,54.5,44.9,30.09,NW,325,0.0,0.0,70,0.00,CLR,,0.00,WeatherDisplay:10.37,2013-10-07 08:23:00,
2013-10-07 03:28:00,54.4,44.8,30.08,NW,325,0.0,0.0,70,0.00,CLR,,0.00,WeatherDisplay:10.37,2013-10-07 08:28:00,
2013-10-07 03:33:00,54.2,43.9,30.08,NW,325,0.0,0.0,68,0.00,CLR,,0.00,WeatherDisplay:10.37,2013-10-07 08:33:00,
2013-10-07 03:38:00,54.1,43.8,30.08,NW,325,0.0,0.0,68,0.00,CLR,,0.00,WeatherDisplay:10.37,2013-10-07 08:38:00,
2013-10-07 03:43:00,53.9,42.8,30.08,NW,325,0.0,0.0,66,0.00,CLR,,0.00,WeatherDisplay:10.37,2013-10-07 08:43:00,
2013-10-07 03:48:00,53.6,43.3,30.08,NW,325,0.0,0.0,68,0.00,CLR,,0.00,WeatherDisplay:10.37,2013-10-07 08:48:00,
2013-10-07 03:53:00,53.5,44.0,30.08,NW,325,0.0,0.0,70,0.00,CLR,,0.00,WeatherDisplay:10.37,2013-10-07 08:53:00,
2013-10-07 03:58:00,53.5,44.3,30.08,WNW,289,1.2,1.2,71,0.00,CLR,,0.00,WeatherDisplay:10.37,2013-10-07 08:58:00,
2013-10-07 04:03:00,53.6,44.4,30.08,West,267,1.2,0.0,71,0.00,CLR,,0.00,WeatherDisplay:10.37,2013-10-07 09:03:00,
2013-10-07 04:08:00,53.6,44.0,30.08,West,267,0.0,0.0,70,0.00,CLR,,0.00,WeatherDisplay:10.37,2013-10-07 09:08:00,
2013-10-07 04:13:00,53.6,44.0,30.08,West,267,0.0,0.1,70,0.00,CLR,,0.00,WeatherDisplay:10.37,2013-10-07 09:13:00,
2013-10-07 04:18:00,53.6,43.3,30.08,West,265,0.0,0.0,68,0.00,CLR,,0.00,WeatherDisplay:10.37,2013-10-07 09:18:00,
2013-10-07 04:23:00,53.6,44.4,30.08,West,265,1.2,0.0,71,0.00,CLR,,0.00,WeatherDisplay:10.37,2013-10-07 09:23:00,
2013-10-07 04:28:00,53.6,44.4,30.08,WSW,244,1.2,1.2,71,0.00,CLR,,0.00,WeatherDisplay:10.37,2013-10-07 09:28:00,
2013-10-07 04:33:00,53.6,44.8,30.09,WSW,243,1.2,0.0,72,0.00,CLR,,0.00,WeatherDisplay:10.37,2013-10-07 09:33:00,
2013-10-07 04:38:00,53.6,44.8,30.09,WSW,240,0.0,0.0,72,0.00,CLR,,0.00,WeatherDisplay:10.37,2013-10-07 09:38:00,
2013-10-07 04:43:00,53.6,44.4,30.09,WSW,243,1.2,1.2,71,0.00,CLR,,0.00,WeatherDisplay:10.37,2013-10-07 09:43:00,
2013-10-07 04:48:00,53.6,44.8,30.09,WSW,238,0.0,0.0,72,0.00,CLR,,0.00,WeatherDisplay:10.37,2013-10-07 09:48:00,
2013-10-07 04:53:00,53.5,44.0,30.09,WSW,239,0.0,0.0,70,0.00,CLR,,0.00,WeatherDisplay:10.37,2013-10-07 09:53:00,
2013-10-07 04:58:00,53.5,43.6,30.09,WSW,239,0.0,0.0,69,0.00,CLR,,0.00,WeatherDisplay:10.37,2013-10-07 09:58:00,
2013-10-07 05:03:00,53.5,43.6,30.09,WSW,239,0.0,0.0,69,0.00,CLR,,0.00,WeatherDisplay:10.37,2013-10-07 10:03:00,
2013-10-07 05:08:00,53.4,43.5,30.09,WSW,239,0.0,0.0,69,0.00,CLR,,0.00,WeatherDisplay:10.37,2013-10-07 10:08:00,
2013-10-07 05:13:00,53.5,43.2,30.09,WSW,239,0.0,0.0,68,0.00,CLR,,0.00,WeatherDisplay:10.37,2013-10-07 10:13:00,
2013-10-07 05:18:00,53.6,43.3,30.09,WSW,239,0.0,0.0,68,0.00,CLR,,0.00,WeatherDisplay:10.37,2013-10-07 10:18:00,
2013-10-07 05:23:00,53.8,43.1,30.09,WSW,242,1.0,1.0,67,0.00,CLR,,0.00,WeatherDisplay:10.37,2013-10-07 10:23:00,
2013-10-07 05:28:00,54.0,43.3,30.09,WSW,240,1.2,1.2,67,0.00,CLR,,0.00,WeatherDisplay:10.37,2013-10-07 10:28:00,
2013-10-07 05:33:00,54.2,42.3,30.09,West,261,2.0,2.0,64,0.00,CLR,,0.00,WeatherDisplay:10.37,2013-10-07 10:33:00,
2013-10-07 05:38:00,54.5,42.6,30.09,WSW,258,1.2,1.2,64,0.00,CLR,,0.00,WeatherDisplay:10.37,2013-10-07 10:38:00,
2013-10-07 05:43:00,54.7,42.3,30.09,WSW,258,0.0,0.0,63,0.00,CLR,,0.00,WeatherDisplay:10.37,2013-10-07 10:43:00,
2013-10-07 05:48:00,54.9,42.9,30.09,WSW,258,1.2,1.2,64,0.00,CLR,,0.00,WeatherDisplay:10.37,2013-10-07 10:48:00,
2013-10-07 05:53:00,55.0,43.8,30.09,West,277,2.3,0.0,66,0.00,CLR,,0.00,WeatherDisplay:10.37,2013-10-07 10:53:00,
2013-10-07 05:58:00,55.0,44.2,30.09,West,277,1.2,0.0,67,0.00,CLR,,0.00,WeatherDisplay:10.37,2013-10-07 10:58:00,
2013-10-07 06:03:00,55.1,46.2,30.09,West,277,1.2,0.0,72,0.00,CLR,,0.00,WeatherDisplay:10.37,2013-10-07 11:03:00,
2013-10-07 06:08:00,55.2,46.3,30.09,West,277,0.0,0.0,72,0.00,CLR,,0.00,WeatherDisplay:10.37,2013-10-07 11:08:00,
2013-10-07 06:13:00,55.2,46.7,30.10,West,277,1.2,1.2,73,0.00,CLR,,0.00,WeatherDisplay:10.37,2013-10-07 11:13:00,
2013-10-07 06:18:00,55.2,46.3,30.10,West,277,1.2,0.0,72,0.00,CLR,,0.00,WeatherDisplay:10.37,2013-10-07 11:18:00,
2013-10-07 06:23:00,55.1,45.9,30.10,West,277,0.0,0.0,71,0.00,CLR,,0.00,WeatherDisplay:10.37,2013-10-07 11:23:00,
2013-10-07 06:28:00,55.0,45.8,30.10,West,277,0.0,0.0,71,0.00,CLR,,0.00,WeatherDisplay:10.37,2013-10-07 11:28:00,
2013-10-07 06:33:00,54.8,45.6,30.10,West,277,0.0,0.0,71,0.00,CLR,,0.00,WeatherDisplay:10.37,2013-10-07 11:33:00,
2013-10-07 06:38:00,54.6,45.0,30.10,West,277,0.0,0.0,70,0.00,CLR,,0.00,WeatherDisplay:10.37,2013-10-07 11:38:00,
2013-10-07 06:43:00,54.5,44.5,30.10,West,277,0.0,0.0,69,0.00,CLR,,0.00,WeatherDisplay:10.37,2013-10-07 11:43:00,
2013-10-07 06:48:00,54.3,44.7,30.10,West,277,0.0,0.0,70,0.00,CLR,,0.00,WeatherDisplay:10.37,2013-10-07 11:48:00,
2013-10-07 06:53:00,54.1,44.5,30.10,West,277,0.0,0.0,70,0.00,CLR,,0.00,WeatherDisplay:10.37,2013-10-07 11:53:00,
2013-10-07 06:58:00,53.8,43.9,30.11,West,277,0.0,0.0,69,0.00,CLR,,0.00,WeatherDisplay:10.37,2013-10-07 11:58:00,
2013-10-07 07:03:00,53.6,43.7,30.11,West,277,0.0,0.0,69,0.00,CLR,,0.00,WeatherDisplay:10.37,2013-10-07 12:03:00,
2013-10-07 07:08:00,53.3,43.8,30.11,West,277,0.0,0.0,70,0.00,CLR,,0.00,WeatherDisplay:10.37,2013-10-07 12:08:00,
2013-10-07 07:13:00,53.0,43.5,30.11,West,277,0.0,0.0,70,0.00,CLR,,0.00,WeatherDisplay:10.37,2013-10-07 12:13:00,
2013-10-07 07:18:00,52.8,44.0,30.11,West,277,0.0,0.0,72,0.00,CLR,,0.00,WeatherDisplay:10.37,2013-10-07 12:18:00,
2013-10-07 07:23:00,52.5,43.7,30.11,West,277,0.0,0.0,72,0.00,CLR,,0.00,WeatherDisplay:10.37,2013-10-07 12:23:00,
2013-10-07 07:28:00,52.3,43.9,30.11,West,277,0.0,0.0,73,0.00,CLR,,0.00,WeatherDisplay:10.37,2013-10-07 12:28:00,
2013-10-07 07:33:00,52.0,43.6,30.11,West,277,0.0,0.0,73,0.00,CLR,,0.00,WeatherDisplay:10.37,2013-10-07 12:33:00,
2013-10-07 07:38:00,51.9,44.6,30.12,West,277,0.0,0.0,76,0.00,CLR,,0.00,WeatherDisplay:10.37,2013-10-07 12:38:00,
2013-10-07 07:43:00,52.0,45.0,30.12,West,277,0.0,0.0,77,0.00,CLR,,0.00,WeatherDisplay:10.37,2013-10-07 12:43:00,
2013-10-07 07:48:00,52.1,45.1,30.12,West,277,0.0,0.0,77,0.00,CLR,,0.00,WeatherDisplay:10.37,2013-10-07 12:48:00,
2013-10-07 07:53:00,52.0,44.3,30.12,West,277,0.0,0.0,75,0.00,CLR,,0.00,WeatherDisplay:10.37,2013-10-07 12:53:00,
2013-10-07 07:58:00,51.9,43.9,30.12,West,277,0.0,0.0,74,0.00,CLR,,0.00,WeatherDisplay:10.37,2013-10-07 12:58:00,
2013-10-07 08:03:00,51.9,44.6,30.12,West,277,1.2,0.0,76,0.00,CLR,,0.00,WeatherDisplay:10.37,2013-10-07 13:03:00,
2013-10-07 08:08:00,52.1,45.4,30.12,West,277,0.0,0.0,78,0.00,CLR,,0.00,WeatherDisplay:10.37,2013-10-07 13:08:00,
2013-10-07 08:13:00,52.3,46.0,30.13,West,277,0.0,0.0,79,0.00,CLR,,0.00,WeatherDisplay:10.37,2013-10-07 13:13:00,
2013-10-07 08:18:00,52.6,45.9,30.13,West,277,0.0,0.0,78,0.00,CLR,,0.00,WeatherDisplay:10.37,2013-10-07 13:18:00,
2013-10-07 08:23:00,52.7,45.3,30.13,West,277,0.0,0.0,76,0.00,CLR,,0.00,WeatherDisplay:10.37,2013-10-07 13:23:00,
2013-10-07 08:28:00,53.0,46.0,30.13,West,277,0.0,0.0,77,0.00,CLR,,0.00,WeatherDisplay:10.37,2013-10-07 13:28:00,
2013-10-07 08:33:00,53.4,46.7,30.13,West,277,0.0,0.0,78,0.00,CLR,,0.00,WeatherDisplay:10.37,2013-10-07 13:33:00,
2013-10-07 08:38:00,53.7,47.3,30.13,West,277,0.0,0.0,79,0.00,CLR,,0.00,WeatherDisplay:10.37,2013-10-07 13:38:00,
2013-10-07 08:43:00,54.1,48.1,30.14,West,277,0.0,0.0,80,0.00,CLR,,0.00,WeatherDisplay:10.37,2013-10-07 13:43:00,
2013-10-07 08:48:00,54.5,48.5,30.14,West,277,0.0,0.0,80,0.00,CLR,,0.00,WeatherDisplay:10.37,2013-10-07 13:48:00,
2013-10-07 08:53:00,54.9,48.5,30.14,West,277,0.0,0.0,79,0.00,CLR,,0.00,WeatherDisplay:10.37,2013-10-07 13:53:00,
2013-10-07 08:58:00,55.3,48.6,30.14,NW,304,1.2,1.2,78,0.00,CLR,,0.00,WeatherDisplay:10.37,2013-10-07 13:58:00,
2013-10-07 09:03:00,55.9,48.1,30.14,NW,304,0.0,0.0,75,0.00,CLR,,0.00,WeatherDisplay:10.37,2013-10-07 14:03:00,
2013-10-07 09:08:00,56.5,48.3,30.14,NW,304,1.2,0.0,74,0.00,CLR,,0.00,WeatherDisplay:10.37,2013-10-07 14:08:00,
2013-10-07 09:13:00,57.4,49.2,30.14,NW,325,2.3,2.3,74,0.00,CLR,,0.00,WeatherDisplay:10.37,2013-10-07 14:13:00,
2013-10-07 09:18:00,58.2,49.2,30.15,NNE,28,2.0,2.0,72,0.00,CLR,,0.00,WeatherDisplay:10.37,2013-10-07 14:18:00,
2013-10-07 09:23:00,59.2,49.0,30.15,NNE,32,2.3,2.3,69,0.00,CLR,,0.00,WeatherDisplay:10.37,2013-10-07 14:23:00,
2013-10-07 09:28:00,60.2,49.6,30.15,NNE,25,0.0,0.0,68,0.00,CLR,,0.00,WeatherDisplay:10.37,2013-10-07 14:28:00,
2013-10-07 09:33:00,61.0,50.0,30.15,NNE,25,0.0,0.0,67,0.00,CLR,,0.00,WeatherDisplay:10.37,2013-10-07 14:33:00,
2013-10-07 09:38:00,61.8,49.9,30.15,ENE,61,3.5,3.5,65,0.00,CLR,,0.00,WeatherDisplay:10.37,2013-10-07 14:38:00,
2013-10-07 09:43:00,62.9,49.2,30.15,ENE,61,1.2,0.0,61,0.00,CLR,,0.00,WeatherDisplay:10.37,2013-10-07 14:43:00,
2013-10-07 09:48:00,64.0,49.4,30.15,NNE,20,1.2,1.2,59,0.00,CLR,,0.00,WeatherDisplay:10.37,2013-10-07 14:48:00,
2013-10-07 09:53:00,65.1,50.0,30.15,NE,39,3.5,3.5,58,0.00,CLR,,0.00,WeatherDisplay:10.37,2013-10-07 14:53:00,
2013-10-07 09:58:00,66.1,48.0,30.15,NNE,20,3.5,3.5,52,0.00,CLR,,0.00,WeatherDisplay:10.37,2013-10-07 14:58:00,
2013-10-07 10:03:00,66.9,46.6,30.15,NNW,344,3.5,3.5,48,0.00,CLR,,0.00,WeatherDisplay:10.37,2013-10-07 15:03:00,
2013-10-07 10:08:00,67.6,45.5,30.15,North,5,1.2,1.2,45,0.00,CLR,,0.00,WeatherDisplay:10.37,2013-10-07 15:08:00,
2013-10-07 10:13:00,68.2,42.9,30.15,NE,45,1.2,1.2,40,0.00,CLR,,0.00,WeatherDisplay:10.37,2013-10-07 15:13:00,
2013-10-07 10:18:00,68.7,44.0,30.15,NE,42,3.5,3.5,41,0.00,CLR,,0.00,WeatherDisplay:10.37,2013-10-07 15:18:00,
2013-10-07 10:23:00,69.2,43.8,30.15,NE,50,2.0,2.0,40,0.00,CLR,,0.00,WeatherDisplay:10.37,2013-10-07 15:23:00,
2013-10-07 10:28:00,69.7,44.3,30.15,NNE,30,1.2,1.2,40,0.00,CLR,,0.00,WeatherDisplay:10.37,2013-10-07 15:28:00,
2013-10-07 10:33:00,70.2,44.7,30.15,North,355,2.3,2.3,40,0.00,CLR,,0.00,WeatherDisplay:10.37,2013-10-07 15:33:00,
2013-10-07 10:38:00,70.7,45.8,30.15,NNE,17,2.3,2.3,41,0.00,CLR,,0.00,WeatherDisplay:10.37,2013-10-07 15:38:00,
2013-10-07 10:43:00,71.2,44.3,30.15,NE,47,2.0,2.0,38,0.00,CLR,,0.00,WeatherDisplay:10.37,2013-10-07 15:43:00,
2013-10-07 10:48:00,71.5,43.8,30.15,NE,56,2.3,2.3,37,0.00,CLR,,0.00,WeatherDisplay:10.37,2013-10-07 15:48:00,
2013-10-07 10:53:00,71.9,43.5,30.15,ENE,57,3.5,3.5,36,0.00,CLR,,0.00,WeatherDisplay:10.37,2013-10-07 15:53:00,
2013-10-07 10:58:00,72.5,42.5,30.15,ENE,57,1.2,1.2,34,0.00,CLR,,0.00,WeatherDisplay:10.37,2013-10-07 15:58:00,
2013-10-07 11:03:00,73.0,43.0,30.15,ENE,57,0.0,0.0,34,0.00,CLR,,0.00,WeatherDisplay:10.37,2013-10-07 16:03:00,
2013-10-07 11:08:00,73.5,42.6,30.15,ENE,78,2.3,2.3,33,0.00,CLR,,0.00,WeatherDisplay:10.37,2013-10-07 16:08:00,
2013-10-07 11:13:00,74.2,47.0,30.15,ENE,78,0.0,0.0,38,0.00,CLR,,0.00,WeatherDisplay:10.37,2013-10-07 16:13:00,
2013-10-07 11:18:00,74.8,42.1,30.15,East,90,2.3,2.3,31,0.00,CLR,,0.00,WeatherDisplay:10.37,2013-10-07 16:18:00,
2013-10-07 11:23:00,75.5,44.4,30.15,East,90,0.0,0.1,33,0.00,CLR,,0.00,WeatherDisplay:10.37,2013-10-07 16:23:00,
2013-10-07 11:28:00,76.1,45.7,30.15,NNE,28,2.3,2.3,34,0.00,CLR,,0.00,WeatherDisplay:10.37,2013-10-07 16:28:00,
2013-10-07 11:33:00,76.4,43.5,30.14,NE,37,2.3,2.3,31,0.00,CLR,,0.00,WeatherDisplay:10.37,2013-10-07 16:33:00,
2013-10-07 11:38:00,76.7,42.9,30.14,West,267,1.2,1.2,30,0.00,CLR,,0.00,WeatherDisplay:10.37,2013-10-07 16:38:00,
2013-10-07 11:43:00,77.6,42.8,30.14,NW,311,0.0,0.0,29,0.00,CLR,,0.00,WeatherDisplay:10.37,2013-10-07 16:43:00,
2013-10-07 11:48:00,78.3,44.3,30.14,ENE,59,3.5,3.5,30,0.00,CLR,,0.00,WeatherDisplay:10.37,2013-10-07 16:48:00,
2013-10-07 11:53:00,78.8,43.8,30.14,East,100,3.5,3.5,29,0.00,CLR,,0.00,WeatherDisplay:10.37,2013-10-07 16:53:00,
2013-10-07 11:58:00,79.5,44.5,30.14,West,279,3.5,3.5,29,0.00,CLR,,0.00,WeatherDisplay:10.37,2013-10-07 16:58:00,
2013-10-07 12:03:00,79.7,42.8,30.14,NE,39,3.5,3.5,27,0.00,CLR,,0.00,WeatherDisplay:10.37,2013-10-07 17:03:00,
2013-10-07 12:08:00,79.9,44.8,30.13,NE,40,1.2,1.2,29,0.00,CLR,,0.00,WeatherDisplay:10.37,2013-10-07 17:08:00,
2013-10-07 12:13:00,80.5,41.4,30.13,North,355,3.5,3.5,25,0.00,CLR,,0.00,WeatherDisplay:10.37,2013-10-07 17:13:00,
2013-10-07 12:18:00,80.9,44.7,30.13,ENE,61,3.5,3.5,28,0.00,CLR,,0.00,WeatherDisplay:10.37,2013-10-07 17:18:00,
2013-10-07 12:23:00,81.1,43.0,30.13,NE,46,3.5,3.5,26,0.00,CLR,,0.00,WeatherDisplay:10.37,2013-10-07 17:23:00,
2013-10-07 12:28:00,81.6,43.4,30.12,WSW,239,1.2,1.2,26,0.00,CLR,,0.00,WeatherDisplay:10.37,2013-10-07 17:28:00,
2013-10-07 12:33:00,81.9,44.6,30.12,NW,320,3.5,3.5,27,0.00,CLR,,0.00,WeatherDisplay:10.37,2013-10-07 17:33:00,
2013-10-07 12:38:00,82.1,44.8,30.12,NNW,334,3.5,3.5,27,0.00,CLR,,0.00,WeatherDisplay:10.37,2013-10-07 17:38:00,
2013-10-07 12:43:00,82.4,44.1,30.12,ESE,112,3.5,3.5,26,0.00,CLR,,0.00,WeatherDisplay:10.37,2013-10-07 17:43:00,
2013-10-07 12:48:00,82.7,44.3,30.12,North,360,3.5,3.5,26,0.00,CLR,,0.00,WeatherDisplay:10.37,2013-10-07 17:48:00,
2013-10-07 12:53:00,82.7,44.3,30.12,NW,319,3.5,3.5,26,0.00,CLR,,0.00,WeatherDisplay:10.37,2013-10-07 17:53:00,
2013-10-07 12:58:00,82.7,41.1,30.11,NE,45,3.5,3.5,23,0.00,CLR,,0.00,WeatherDisplay:10.37,2013-10-07 17:58:00,
2013-10-07 13:03:00,83.0,40.2,30.11,ENE,67,2.3,2.3,22,0.00,CLR,,0.00,WeatherDisplay:10.37,2013-10-07 18:03:00,
2013-10-07 13:08:00,83.3,43.8,30.11,NNE,27,3.5,3.5,25,0.00,CLR,,0.00,WeatherDisplay:10.37,2013-10-07 18:08:00,
2013-10-07 13:13:00,83.5,39.4,30.11,NE,41,0.0,0.0,21,0.00,CLR,,0.00,WeatherDisplay:10.37,2013-10-07 18:13:00,
2013-10-07 13:18:00,83.8,40.9,30.10,ENE,74,3.5,0.0,22,0.00,CLR,,0.00,WeatherDisplay:10.37,2013-10-07 18:18:00,
2013-10-07 13:23:00,84.0,43.3,30.10,NW,312,3.5,3.5,24,0.00,CLR,,0.00,WeatherDisplay:10.37,2013-10-07 18:23:00,
2013-10-07 13:28:00,84.0,43.3,30.10,ESE,105,4.0,4.0,24,0.00,CLR,,0.00,WeatherDisplay:10.37,2013-10-07 18:28:00,
2013-10-07 13:33:00,84.1,43.4,30.09,NE,51,3.5,3.5,24,0.00,CLR,,0.00,WeatherDisplay:10.37,2013-10-07 18:33:00,
2013-10-07 13:38:00,84.3,43.6,30.09,NNE,32,3.5,3.5,24,0.00,CLR,,0.00,WeatherDisplay:10.37,2013-10-07 18:38:00,
2013-10-07 13:43:00,84.3,43.6,30.09,NE,34,2.0,2.0,24,0.00,CLR,,0.00,WeatherDisplay:10.37,2013-10-07 18:43:00,
2013-10-07 13:48:00,84.3,42.5,30.09,ENE,69,3.5,3.5,23,0.00,CLR,,0.00,WeatherDisplay:10.37,2013-10-07 18:48:00,
2013-10-07 13:53:00,84.2,43.5,30.08,ENE,65,2.3,2.3,24,0.00,CLR,,0.00,WeatherDisplay:10.37,2013-10-07 18:53:00,
2013-10-07 13:58:00,84.1,42.3,30.08,NW,326,2.3,2.3,23,0.00,CLR,,0.00,WeatherDisplay:10.37,2013-10-07 18:58:00,
2013-10-07 14:03:00,83.9,45.3,30.08,North,5,2.0,2.0,26,0.00,CLR,,0.00,WeatherDisplay:10.37,2013-10-07 19:03:00,
2013-10-07 14:08:00,84.1,44.5,30.08,North,9,3.5,3.5,25,0.00,CLR,,0.00,WeatherDisplay:10.37,2013-10-07 19:08:00,
2013-10-07 14:13:00,84.3,43.6,30.08,NNW,342,2.3,0.0,24,0.00,CLR,,0.00,WeatherDisplay:10.37,2013-10-07 19:13:00,
2013-10-07 14:18:00,84.3,43.6,30.07,WNW,303,5.8,5.8,24,0.00,CLR,,0.00,WeatherDisplay:10.37,2013-10-07 19:18:00,
2013-10-07 14:23:00,84.3,45.7,30.07,WNW,293,3.5,3.5,26,0.00,CLR,,0.00,WeatherDisplay:10.37,2013-10-07 19:23:00,
2013-10-07 14:28:00,84.2,43.5,30.07,NNW,348,3.0,3.0,24,0.00,CLR,,0.00,WeatherDisplay:10.37,2013-10-07 19:28:00,
2013-10-07 14:33:00,84.0,44.4,30.06,NNE,26,1.0,1.0,25,0.00,CLR,,0.00,WeatherDisplay:10.37,2013-10-07 19:33:00,
2013-10-07 14:38:00,84.0,44.4,30.06,NE,40,4.0,4.0,25,0.00,CLR,,0.00,WeatherDisplay:10.37,2013-10-07 19:38:00,
2013-10-07 14:43:00,83.9,43.2,30.06,SE,128,2.3,2.3,24,0.00,CLR,,0.00,WeatherDisplay:10.37,2013-10-07 19:43:00,
2013-10-07 14:48:00,83.8,45.3,30.06,NNE,27,8.1,8.1,26,0.00,CLR,,0.00,WeatherDisplay:10.37,2013-10-07 19:48:00,
2013-10-07 14:53:00,83.6,43.0,30.06,NNE,25,3.5,3.5,24,0.00,CLR,,0.00,WeatherDisplay:10.37,2013-10-07 19:53:00,
2013-10-07 14:58:00,83.5,46.0,30.06,NNE,24,5.8,5.8,27,0.00,CLR,,0.00,WeatherDisplay:10.37,2013-10-07 19:58:00,
2013-10-07 15:03:00,83.4,43.9,30.05,NNE,28,3.5,3.5,25,0.00,CLR,,0.00,WeatherDisplay:10.37,2013-10-07 20:03:00,
2013-10-07 15:08:00,83.4,44.9,30.05,NW,305,2.3,2.3,26,0.00,CLR,,0.00,WeatherDisplay:10.37,2013-10-07 20:08:00,
2013-10-07 15:13:00,83.4,45.9,30.05,North,360,3.5,3.5,27,0.00,CLR,,0.00,WeatherDisplay:10.37,2013-10-07 20:13:00,
2013-10-07 15:18:00,83.4,45.9,30.05,NNE,13,3.5,3.5,27,0.00,CLR,,0.00,WeatherDisplay:10.37,2013-10-07 20:18:00,
2013-10-07 15:23:00,83.3,42.7,30.05,North,5,3.5,3.5,24,0.00,CLR,,0.00,WeatherDisplay:10.37,2013-10-07 20:23:00,
2013-10-07 15:28:00,83.2,45.7,30.04,West,281,5.8,5.8,27,0.00,CLR,,0.00,WeatherDisplay:10.37,2013-10-07 20:28:00,
2013-10-07 15:33:00,83.2,44.7,30.04,East,90,3.5,3.5,26,0.00,CLR,,0.00,WeatherDisplay:10.37,2013-10-07 20:33:00,
2013-10-07 15:38:00,83.2,43.7,30.04,NE,47,3.0,3.0,25,0.00,CLR,,0.00,WeatherDisplay:10.37,2013-10-07 20:38:00,
2013-10-07 15:43:00,83.4,45.9,30.04,NNE,16,4.0,4.0,27,0.00,CLR,,0.00,WeatherDisplay:10.37,2013-10-07 20:43:00,
2013-10-07 15:48:00,83.4,44.9,30.04,NW,313,4.6,4.6,26,0.00,CLR,,0.00,WeatherDisplay:10.37,2013-10-07 20:48:00,
2013-10-07 15:53:00,83.4,43.9,30.04,West,271,1.2,1.2,25,0.00,CLR,,0.00,WeatherDisplay:10.37,2013-10-07 20:53:00,
2013-10-07 15:58:00,83.3,46.8,30.04,NNE,13,4.6,4.6,28,0.00,CLR,,0.00,WeatherDisplay:10.37,2013-10-07 20:58:00,
2013-10-07 16:03:00,83.1,43.6,30.03,WNW,295,3.5,3.5,25,0.00,CLR,,0.00,WeatherDisplay:10.37,2013-10-07 21:03:00,
2013-10-07 16:08:00,83.0,45.6,30.03,ENE,71,2.3,2.3,27,0.00,CLR,,0.00,WeatherDisplay:10.37,2013-10-07 21:08:00,
2013-10-07 16:13:00,82.9,43.5,30.03,NE,44,3.5,3.5,25,0.00,CLR,,0.00,WeatherDisplay:10.37,2013-10-07 21:13:00,
2013-10-07 16:18:00,82.9,44.5,30.03,NE,43,1.0,1.0,26,0.00,CLR,,0.00,WeatherDisplay:10.37,2013-10-07 21:18:00,
2013-10-07 16:23:00,82.8,45.4,30.02,NE,40,3.5,3.5,27,0.00,CLR,,0.00,WeatherDisplay:10.37,2013-10-07 21:23:00,
2013-10-07 16:28:00,82.8,45.4,30.02,NNE,16,1.2,1.6,27,0.00,CLR,,0.00,WeatherDisplay:10.37,2013-10-07 21:28:00,
2013-10-07 16:33:00,82.8,44.4,30.02,NNE,15,8.1,8.1,26,0.00,CLR,,0.00,WeatherDisplay:10.37,2013-10-07 21:33:00,
2013-10-07 16:38:00,82.8,45.4,30.02,ENE,76,3.5,3.5,27,0.00,CLR,,0.00,WeatherDisplay:10.37,2013-10-07 21:38:00,
2013-10-07 16:43:00,82.8,46.4,30.02,NW,304,4.0,4.0,28,0.00,CLR,,0.00,WeatherDisplay:10.37,2013-10-07 21:43:00,
2013-10-07 16:48:00,82.8,46.4,30.02,ENE,76,3.5,3.5,28,0.00,CLR,,0.00,WeatherDisplay:10.37,2013-10-07 21:48:00,
2013-10-07 16:53:00,82.7,45.3,30.02,NW,317,3.5,3.5,27,0.00,CLR,,0.00,WeatherDisplay:10.37,2013-10-07 21:53:00,
2013-10-07 16:58:00,82.7,45.3,30.02,NW,304,0.0,0.0,27,0.00,CLR,,0.00,WeatherDisplay:10.37,2013-10-07 21:58:00,
2013-10-07 17:03:00,82.7,44.3,30.02,NNE,33,3.5,3.5,26,0.00,CLR,,0.00,WeatherDisplay:10.37,2013-10-07 22:03:00,
2013-10-07 17:08:00,82.5,47.0,30.01,NE,46,2.3,2.3,29,0.00,CLR,,0.00,WeatherDisplay:10.37,2013-10-07 22:08:00,
2013-10-07 17:13:00,82.3,45.0,30.01,WNW,300,1.0,1.0,27,0.00,CLR,,0.00,WeatherDisplay:10.37,2013-10-07 22:13:00,
2013-10-07 17:18:00,82.1,46.7,30.02,NW,311,0.0,0.2,29,0.00,CLR,,0.00,WeatherDisplay:10.37,2013-10-07 22:18:00,
2013-10-07 17:23:00,81.9,46.5,30.01,NE,39,1.2,1.2,29,0.00,CLR,,0.00,WeatherDisplay:10.37,2013-10-07 22:23:00,
2013-10-07 17:28:00,81.7,46.3,30.01,NE,45,1.0,1.0,29,0.00,CLR,,0.00,WeatherDisplay:10.37,2013-10-07 22:28:00,
2013-10-07 17:33:00,81.5,46.2,30.01,NE,35,0.0,0.0,29,0.00,CLR,,0.00,WeatherDisplay:10.37,2013-10-07 22:33:00,
2013-10-07 17:38:00,81.3,46.0,30.01,ENE,57,0.0,0.0,29,0.00,CLR,,0.00,WeatherDisplay:10.37,2013-10-07 22:38:00,
2013-10-07 17:43:00,81.0,45.7,30.01,ESE,107,1.2,0.0,29,0.00,CLR,,0.00,WeatherDisplay:10.37,2013-10-07 22:43:00,
2013-10-07 17:48:00,80.8,46.5,30.01,ESE,107,1.2,0.0,30,0.00,CLR,,0.00,WeatherDisplay:10.37,2013-10-07 22:48:00,
2013-10-07 17:53:00,80.6,46.3,30.01,ESE,102,0.0,0.2,30,0.00,CLR,,0.00,WeatherDisplay:10.37,2013-10-07 22:53:00,
2013-10-07 17:58:00,80.4,47.8,30.01,East,101,1.2,0.0,32,0.00,CLR,,0.00,WeatherDisplay:10.37,2013-10-07 22:58:00,
2013-10-07 18:03:00,80.1,48.4,30.01,East,90,2.3,2.3,33,0.00,CLR,,0.00,WeatherDisplay:10.37,2013-10-07 23:03:00,
2013-10-07 18:08:00,79.8,45.6,30.01,ENE,76,0.0,0.0,30,0.00,CLR,,0.00,WeatherDisplay:10.37,2013-10-07 23:08:00,
2013-10-07 18:13:00,79.6,48.0,30.01,East,86,2.3,0.0,33,0.00,CLR,,0.00,WeatherDisplay:10.37,2013-10-07 23:13:00,
2013-10-07 18:18:00,79.3,46.9,30.01,ESE,107,0.0,0.0,32,0.00,CLR,,0.00,WeatherDisplay:10.37,2013-10-07 23:18:00,
2013-10-07 18:23:00,79.1,47.5,30.01,ESE,107,1.2,1.2,33,0.00,CLR,,0.00,WeatherDisplay:10.37,2013-10-07 23:23:00,
2013-10-07 18:28:00,78.7,48.0,30.01,ENE,77,0.0,0.0,34,0.00,CLR,,0.00,WeatherDisplay:10.37,2013-10-07 23:28:00,
2013-10-07 18:33:00,78.4,49.2,30.01,ENE,77,0.0,0.0,36,0.00,CLR,,0.00,WeatherDisplay:10.37,2013-10-07 23:33:00,
2013-10-07 18:38:00,78.2,47.5,30.01,ENE,77,0.0,0.0,34,0.00,CLR,,0.00,WeatherDisplay:10.37,2013-10-07 23:38:00,
2013-10-07 18:43:00,77.7,47.9,30.02,ENE,77,0.0,0.0,35,0.00,CLR,,0.00,WeatherDisplay:10.37,2013-10-07 23:43:00,
2013-10-07 18:48:00,77.2,48.9,30.02,ENE,77,0.0,0.0,37,0.00,CLR,,0.00,WeatherDisplay:10.37,2013-10-07 23:48:00,
2013-10-07 18:53:00,76.7,49.9,30.02,ENE,77,0.0,0.0,39,0.00,CLR,,0.00,WeatherDisplay:10.37,2013-10-07 23:53:00,
2013-10-07 18:58:00,76.1,49.3,30.01,ENE,77,0.0,0.0,39,0.00,CLR,,0.00,WeatherDisplay:10.37,2013-10-07 23:58:00,
2013-10-07 19:03:00,75.6,50.2,30.02,ENE,77,0.0,0.0,41,0.00,CLR,,0.00,WeatherDisplay:10.37,2013-10-08 00:03:00,
2013-10-07 19:08:00,75.1,51.1,30.02,ENE,77,0.0,0.0,43,0.00,CLR,,0.00,WeatherDisplay:10.37,2013-10-08 00:08:00,
2013-10-07 19:13:00,74.4,50.4,30.02,ENE,77,0.0,0.0,43,0.00,CLR,,0.00,WeatherDisplay:10.37,2013-10-08 00:13:00,
2013-10-07 19:18:00,73.7,49.8,30.02,ENE,77,0.0,0.0,43,0.00,CLR,,0.00,WeatherDisplay:10.37,2013-10-08 00:18:00,
2013-10-07 19:23:00,73.1,50.5,30.02,ENE,77,0.0,0.0,45,0.00,CLR,,0.00,WeatherDisplay:10.37,2013-10-08 00:23:00,
2013-10-07 19:28:00,72.5,50.5,30.02,ENE,77,0.0,0.0,46,0.00,CLR,,0.00,WeatherDisplay:10.37,2013-10-08 00:28:00,
2013-10-07 19:33:00,71.9,48.8,30.02,ENE,77,0.0,0.0,44,0.00,CLR,,0.00,WeatherDisplay:10.37,2013-10-08 00:33:00,
2013-10-07 19:38:00,71.4,49.5,30.02,ENE,77,0.0,0.0,46,0.00,CLR,,0.00,WeatherDisplay:10.37,2013-10-08 00:38:00,
2013-10-07 19:43:00,71.0,49.2,30.02,ENE,77,0.0,0.0,46,0.00,CLR,,0.00,WeatherDisplay:10.37,2013-10-08 00:43:00,
2013-10-07 19:48:00,70.5,48.1,30.02,ENE,77,0.0,0.0,45,0.00,CLR,,0.00,WeatherDisplay:10.37,2013-10-08 00:48:00,
2013-10-07 19:53:00,70.1,47.8,30.02,ENE,77,0.0,0.0,45,0.00,CLR,,0.00,WeatherDisplay:10.37,2013-10-08 00:53:00,
2013-10-07 19:58:00,69.7,48.0,30.02,ENE,77,0.0,0.0,46,0.00,CLR,,0.00,WeatherDisplay:10.37,2013-10-08 00:58:00,
2013-10-07 20:03:00,69.4,48.3,30.02,ENE,77,0.0,0.0,47,0.00,CLR,,0.00,WeatherDisplay:10.37,2013-10-08 01:03:00,
2013-10-07 20:08:00,69.0,49.0,30.02,ENE,77,0.0,0.0,49,0.00,CLR,,0.00,WeatherDisplay:10.37,2013-10-08 01:08:00,
2013-10-07 20:13:00,68.6,47.6,30.03,ENE,77,0.0,0.0,47,0.00,CLR,,0.00,WeatherDisplay:10.37,2013-10-08 01:13:00,
2013-10-07 20:18:00,68.2,47.8,30.03,ENE,77,0.0,0.0,48,0.00,CLR,,0.00,WeatherDisplay:10.37,2013-10-08 01:18:00,
2013-10-07 20:23:00,67.8,47.9,30.03,ENE,77,0.0,0.0,49,0.00,CLR,,0.00,WeatherDisplay:10.37,2013-10-08 01:23:00,
2013-10-07 20:28:00,67.4,47.6,30.03,ENE,77,0.0,0.0,49,0.00,CLR,,0.00,WeatherDisplay:10.37,2013-10-08 01:28:00,
2013-10-07 20:33:00,67.1,48.4,30.03,ENE,77,0.0,0.0,51,0.00,CLR,,0.00,WeatherDisplay:10.37,2013-10-08 01:33:00,
2013-10-07 20:38:00,66.7,48.5,30.04,ENE,77,0.0,0.0,52,0.00,CLR,,0.00,WeatherDisplay:10.37,2013-10-08 01:38:00,
2013-10-07 20:43:00,66.5,48.3,30.04,ENE,77,0.0,0.0,52,0.00,CLR,,0.00,WeatherDisplay:10.37,2013-10-08 01:43:00,
2013-10-07 20:48:00,66.3,48.7,30.04,ENE,77,0.0,0.0,53,0.00,CLR,,0.00,WeatherDisplay:10.37,2013-10-08 01:48:00,
2013-10-07 20:53:00,66.0,48.9,30.04,ENE,77,0.0,0.0,54,0.00,CLR,,0.00,WeatherDisplay:10.37,2013-10-08 01:53:00,
2013-10-07 20:58:00,65.7,48.6,30.04,SSE,163,0.0,0.0,54,0.00,CLR,,0.00,WeatherDisplay:10.37,2013-10-08 01:58:00,
2013-10-07 21:03:00,65.5,49.4,30.04,SSE,163,0.0,0.0,56,0.00,CLR,,0.00,WeatherDisplay:10.37,2013-10-08 02:03:00,
2013-10-07 21:08:00,65.3,49.7,30.04,SSE,163,0.0,0.0,57,0.00,CLR,,0.00,WeatherDisplay:10.37,2013-10-08 02:08:00,
2013-10-07 21:13:00,65.2,49.6,30.05,SSE,163,0.0,0.0,57,0.00,CLR,,0.00,WeatherDisplay:10.37,2013-10-08 02:13:00,
2013-10-07 21:18:00,65.0,49.4,30.05,SSE,163,0.0,0.0,57,0.00,CLR,,0.00,WeatherDisplay:10.37,2013-10-08 02:18:00,
2013-10-07 21:23:00,64.7,49.1,30.05,SSE,163,0.0,0.0,57,0.00,CLR,,0.00,WeatherDisplay:10.37,2013-10-08 02:23:00,
2013-10-07 21:29:00,64.4,48.8,30.05,SSE,163,0.0,0.0,57,0.00,CLR,,0.00,WeatherDisplay:10.37,2013-10-08 02:29:00,
2013-10-07 21:34:00,64.0,48.5,30.05,SSE,163,0.0,0.0,57,0.00,CLR,,0.00,WeatherDisplay:10.37,2013-10-08 02:34:00,
2013-10-07 21:39:00,63.7,49.1,30.05,SSE,163,0.0,0.0,59,0.00,CLR,,0.00,WeatherDisplay:10.37,2013-10-08 02:39:00,
2013-10-07 21:44:00,63.4,48.8,30.06,SSE,163,0.0,0.0,59,0.00,CLR,,0.00,WeatherDisplay:10.37,2013-10-08 02:44:00,
2013-10-07 21:49:00,63.0,48.4,30.06,SSE,163,0.0,0.0,59,0.00,CLR,,0.00,WeatherDisplay:10.37,2013-10-08 02:49:00,
2013-10-07 21:54:00,62.7,49.5,30.06,SSE,163,0.0,0.0,62,0.00,CLR,,0.00,WeatherDisplay:10.37,2013-10-08 02:54:00,
2013-10-07 21:59:00,62.6,49.4,30.06,SSE,163,0.0,0.0,62,0.00,CLR,,0.00,WeatherDisplay:10.37,2013-10-08 02:59:00,
2013-10-07 22:04:00,62.5,49.3,30.06,SSE,163,0.0,0.0,62,0.00,CLR,,0.00,WeatherDisplay:10.37,2013-10-08 03:04:00,
2013-10-07 22:09:00,62.3,49.1,30.06,SSE,163,0.0,0.0,62,0.00,CLR,,0.00,WeatherDisplay:10.37,2013-10-08 03:09:00,
2013-10-07 22:14:00,62.2,48.6,30.05,SSE,163,0.0,0.0,61,0.00,CLR,,0.00,WeatherDisplay:10.37,2013-10-08 03:14:00,
2013-10-07 22:19:00,62.1,48.0,30.06,SSE,163,0.0,0.0,60,0.00,CLR,,0.00,WeatherDisplay:10.37,2013-10-08 03:19:00,
2013-10-07 22:24:00,61.9,47.9,30.06,SSE,163,0.0,0.0,60,0.00,CLR,,0.00,WeatherDisplay:10.37,2013-10-08 03:24:00,
2013-10-07 22:29:00,61.8,48.6,30.06,SSE,163,0.0,0.0,62,0.00,CLR,,0.00,WeatherDisplay:10.37,2013-10-08 03:29:00,
2013-10-07 22:34:00,61.7,48.5,30.06,SSE,163,1.0,0.0,62,0.00,CLR,,0.00,WeatherDisplay:10.37,2013-10-08 03:34:00,
2013-10-07 22:39:00,61.7,48.5,30.06,SSE,163,0.0,0.0,62,0.00,CLR,,0.00,WeatherDisplay:10.37,2013-10-08 03:39:00,
2013-10-07 22:44:00,61.6,47.6,30.06,SSE,163,0.0,0.0,60,0.00,CLR,,0.00,WeatherDisplay:10.37,2013-10-08 03:44:00,
2013-10-07 22:49:00,61.5,47.5,30.06,SSE,163,0.0,0.0,60,0.00,CLR,,0.00,WeatherDisplay:10.37,2013-10-08 03:49:00,
2013-10-07 22:54:00,61.4,48.3,30.06,SSE,163,0.0,0.0,62,0.00,CLR,,0.00,WeatherDisplay:10.37,2013-10-08 03:54:00,
2013-10-07 22:59:00,61.4,49.1,30.06,SSE,163,0.0,0.0,64,0.00,CLR,,0.00,WeatherDisplay:10.37,2013-10-08 03:59:00,
2013-10-07 23:01:00,61.4,49.1,30.06,SSE,163,0.0,0.0,64,0.00,CLR,,0.00,WeatherDisplay:10.37,2013-10-08 04:01:00,
2013-10-07 23:02:00,61.4,49.1,30.06,SSE,163,0.0,0.0,64,0.00,CLR,,0.00,WeatherDisplay:10.37,2013-10-08 04:02:00,
2013-10-07 23:07:00,61.4,49.1,30.06,SSE,163,0.0,0.0,64,0.00,CLR,,0.00,WeatherDisplay:10.37,2013-10-08 04:07:00,
2013-10-07 23:12:00,61.3,48.2,30.06,SSE,163,0.0,0.0,62,0.00,CLR,,0.00,WeatherDisplay:10.37,2013-10-08 04:12:00,
2013-10-07 23:17:00,61.2,47.6,30.06,SSE,163,0.0,0.0,61,0.00,CLR,,0.00,WeatherDisplay:10.37,2013-10-08 04:17:00,
2013-10-07 23:22:00,61.1,48.0,30.06,SSE,163,0.0,0.0,62,0.00,CLR,,0.00,WeatherDisplay:10.37,2013-10-08 04:22:00,
2013-10-07 23:27:00,61.0,47.4,30.05,SSE,163,0.0,0.0,61,0.00,CLR,,0.00,WeatherDisplay:10.37,2013-10-08 04:27:00,
2013-10-07 23:32:00,60.9,47.4,30.05,SSE,163,0.0,0.0,61,0.00,CLR,,0.00,WeatherDisplay:10.37,2013-10-08 04:32:00,
2013-10-07 23:37:00,60.8,48.5,30.05,SSE,163,0.0,0.0,64,0.00,CLR,,0.00,WeatherDisplay:10.37,2013-10-08 04:37:00,
2013-10-07 23:42:00,60.7,46.7,30.05,SSE,163,0.0,0.0,60,0.00,CLR,,0.00,WeatherDisplay:10.37,2013-10-08 04:42:00,
2013-10-07 23:47:00,60.6,47.5,30.05,SSE,163,0.0,0.0,62,0.00,CLR,,0.00,WeatherDisplay:10.37,2013-10-08 04:47:00,
2013-10-07 23:52:00,60.5,47.0,30.05,SSE,163,0.0,0.0,61,0.00,CLR,,0.00,WeatherDisplay:10.37,2013-10-08 04:52:00,
2013-10-07 23:57:00,60.5,47.4,30.05,SSE,163,0.0,0.0,62,0.00,CLR,,0.00,WeatherDisplay:10.37,2013-10-08 04:57:00,